AAL12 KDEN-KJFK

Flight info

Callsign AAL12
Flight time 2h 50m
Altitude 37000
Route EEONS8 WYNDM HCT SAUGI KATES DBQ KG75M DAFLU J70 JHW Q476 WLKES PUCKY1
Aircraft B77W/H-SDE1E2E3FGHIJ2J3J4J5M1RWXY/LB1D1

Departure

Time 2026-05-07 02:13
Airport Denver International Airport (KDEN)

Arrival

Time 2026-05-07 05:03
Airport John F. Kennedy International Airport (KJFK)
Time Latitude Longitude Altitude Speed Heading
2026-05-07 01:42 39.85797 -104.67196 5391 ft 0 kts
2026-05-07 02:03 39.85742 -104.67203 5392 ft 0 kts
2026-05-07 02:04 39.85666 -104.67222 5391 ft 0 kts 90°
2026-05-07 02:05 39.85666 -104.67218 5391 ft 1 kts 91°
2026-05-07 02:05 39.85666 -104.67212 5391 ft 1 kts 91°
2026-05-07 02:06 39.85666 -104.67206 5391 ft 1 kts 91°
2026-05-07 02:06 39.85666 -104.67203 5391 ft 0 kts 91°
2026-05-07 02:07 39.85664 -104.67130 5384 ft 10 kts 91°
2026-05-07 02:07 39.85662 -104.66944 5384 ft 10 kts 90°
2026-05-07 02:07 39.85661 -104.66851 5384 ft 10 kts 90°
2026-05-07 02:08 39.85658 -104.66750 5391 ft 15 kts 95°
2026-05-07 02:08 39.85657 -104.66609 5391 ft 16 kts 88°
2026-05-07 02:08 39.85678 -104.66471 5384 ft 16 kts 83°
2026-05-07 02:08 39.85678 -104.66330 5390 ft 16 kts 90°
2026-05-07 02:09 39.85742 -104.66239 5392 ft 15 kts
2026-05-07 02:09 39.85849 -104.66235 5393 ft 16 kts
2026-05-07 02:09 39.85986 -104.66234 5390 ft 24 kts
2026-05-07 02:09 39.86160 -104.66231 5389 ft 26 kts
2026-05-07 02:10 39.86341 -104.66229 5385 ft 26 kts
2026-05-07 02:10 39.86523 -104.66225 5390 ft 26 kts 360°
2026-05-07 02:10 39.86705 -104.66224 5383 ft 26 kts
2026-05-07 02:10 39.86887 -104.66223 5377 ft 26 kts
2026-05-07 02:11 39.87069 -104.66222 5372 ft 26 kts
2026-05-07 02:11 39.87250 -104.66220 5369 ft 26 kts
2026-05-07 02:11 39.87432 -104.66215 5365 ft 26 kts
2026-05-07 02:11 39.87614 -104.66213 5365 ft 25 kts 360°
2026-05-07 02:12 39.87749 -104.66147 5360 ft 21 kts 75°
2026-05-07 02:12 39.87753 -104.65762 5359 ft 86 kts 91°
2026-05-07 02:12 39.87740 -104.64566 5347 ft 181 kts 89°
2026-05-07 02:12 39.87758 -104.62687 6025 ft 215 kts 91°
2026-05-07 02:13 39.87824 -104.60745 7312 ft 222 kts 90°
2026-05-07 02:13 39.87839 -104.58583 7668 ft 255 kts 91°
2026-05-07 02:13 39.87971 -104.56153 7915 ft 283 kts 77°
2026-05-07 02:13 39.88526 -104.53658 8795 ft 290 kts 70°
2026-05-07 02:14 39.89175 -104.51138 9644 ft 296 kts 68°
2026-05-07 02:14 39.89824 -104.48559 10048 ft 302 kts 68°
2026-05-07 02:14 39.90457 -104.45925 10031 ft 306 kts 69°
2026-05-07 02:14 39.91075 -104.43278 10029 ft 304 kts 69°
2026-05-07 02:15 39.91679 -104.40661 10020 ft 300 kts 69°
2026-05-07 02:15 39.92267 -104.38045 10080 ft 306 kts 70°
2026-05-07 02:15 39.92882 -104.35257 10358 ft 335 kts 70°
2026-05-07 02:15 39.93554 -104.32202 10587 ft 366 kts 71°
2026-05-07 02:16 39.94277 -104.28895 10978 ft 390 kts 71°
2026-05-07 02:16 39.95023 -104.25449 11776 ft 399 kts 71°
2026-05-07 02:16 39.95782 -104.21951 12038 ft 405 kts 70°
2026-05-07 02:16 39.96550 -104.18421 12028 ft 404 kts 70°
2026-05-07 02:17 39.97304 -104.14904 12026 ft 402 kts 72°
2026-05-07 02:17 39.97830 -104.11290 12546 ft 411 kts 78°
2026-05-07 02:17 39.98186 -104.07611 13580 ft 416 kts 79°
2026-05-07 02:17 39.98523 -104.03856 14583 ft 419 kts 79°
2026-05-07 02:18 39.98892 -104.00083 15584 ft 420 kts 78°
2026-05-07 02:18 39.99292 -103.96300 16587 ft 422 kts 77°
2026-05-07 02:18 39.99707 -103.92499 17545 ft 425 kts 76°
2026-05-07 02:18 40.00221 -103.88700 18465 ft 427 kts 73°
2026-05-07 02:19 40.00851 -103.84891 19243 ft 431 kts 72°
2026-05-07 02:19 40.01502 -103.81049 19906 ft 438 kts 72°
2026-05-07 02:19 40.02139 -103.77139 20592 ft 443 kts 73°
2026-05-07 02:19 40.02777 -103.73185 21302 ft 448 kts 72°
2026-05-07 02:20 40.03431 -103.69194 22001 ft 452 kts 72°
2026-05-07 02:20 40.04095 -103.65164 22648 ft 457 kts 72°
2026-05-07 02:20 40.04767 -103.61087 23285 ft 462 kts 72°
2026-05-07 02:20 40.05445 -103.56964 23878 ft 467 kts 72°
2026-05-07 02:21 40.06124 -103.52804 24384 ft 471 kts 72°
2026-05-07 02:21 40.06809 -103.48599 24942 ft 474 kts 73°
2026-05-07 02:21 40.07491 -103.44386 25597 ft 474 kts 73°
2026-05-07 02:21 40.08168 -103.40183 26333 ft 471 kts 72°
2026-05-07 02:22 40.08838 -103.36011 27136 ft 468 kts 72°
2026-05-07 02:22 40.09502 -103.31867 27906 ft 466 kts 72°
2026-05-07 02:22 40.10165 -103.27735 28662 ft 464 kts 72°
2026-05-07 02:22 40.10825 -103.23617 29417 ft 462 kts 72°
2026-05-07 02:23 40.11481 -103.19517 30188 ft 460 kts 72°
2026-05-07 02:23 40.12128 -103.15460 30800 ft 459 kts 72°
2026-05-07 02:23 40.12778 -103.11377 31428 ft 459 kts 72°
2026-05-07 02:23 40.13427 -103.07291 31958 ft 459 kts 72°
2026-05-07 02:24 40.14077 -103.03197 32489 ft 459 kts 72°
2026-05-07 02:24 40.14722 -102.99112 33032 ft 459 kts 72°
2026-05-07 02:24 40.15366 -102.95026 33546 ft 459 kts 72°
2026-05-07 02:24 40.16007 -102.90943 34061 ft 459 kts 73°
2026-05-07 02:25 40.16649 -102.86854 34460 ft 460 kts 73°
2026-05-07 02:25 40.17292 -102.82751 34737 ft 463 kts 73°
2026-05-07 02:25 40.17939 -102.78608 35015 ft 466 kts 73°
2026-05-07 02:25 40.18588 -102.74446 35334 ft 469 kts 73°
2026-05-07 02:26 40.19239 -102.70257 35618 ft 471 kts 73°
2026-05-07 02:26 40.19891 -102.66043 35910 ft 473 kts 73°
2026-05-07 02:26 40.20545 -102.61810 36209 ft 476 kts 74°
2026-05-07 02:26 40.21199 -102.57562 36482 ft 478 kts 74°
2026-05-07 02:27 40.21856 -102.53288 36759 ft 480 kts 74°
2026-05-07 02:27 40.22513 -102.48994 37028 ft 482 kts 74°
2026-05-07 02:27 40.23834 -102.40350 37183 ft 492 kts 75°
2026-05-07 02:28 40.25185 -102.31463 37175 ft 502 kts 75°
2026-05-07 02:28 40.26541 -102.22473 37156 ft 503 kts 75°
2026-05-07 02:29 40.27897 -102.13424 37155 ft 503 kts 75°
2026-05-07 02:29 40.29237 -102.04443 37147 ft 502 kts 75°
2026-05-07 02:30 40.30570 -101.95469 37152 ft 502 kts 75°
2026-05-07 02:30 40.31895 -101.86499 37132 ft 501 kts 75°
2026-05-07 02:31 40.33211 -101.77541 37122 ft 500 kts 75°
2026-05-07 02:31 40.34510 -101.68646 37116 ft 500 kts 75°
2026-05-07 02:32 40.35813 -101.59673 37118 ft 501 kts 75°
2026-05-07 02:32 40.37111 -101.50687 37116 ft 502 kts 75°
2026-05-07 02:33 40.38405 -101.41680 37119 ft 503 kts 75°
2026-05-07 02:33 40.39699 -101.32662 37130 ft 504 kts 75°
2026-05-07 02:34 40.40994 -101.23618 37143 ft 505 kts 76°
2026-05-07 02:34 40.42284 -101.14550 37147 ft 506 kts 76°
2026-05-07 02:35 40.43568 -101.05462 37141 ft 507 kts 76°
2026-05-07 02:35 40.45020 -100.96430 37130 ft 502 kts 68°
2026-05-07 02:36 40.47946 -100.88232 37146 ft 492 kts 53°
2026-05-07 02:36 40.52059 -100.81143 37136 ft 487 kts 46°
2026-05-07 02:37 40.56314 -100.74282 37132 ft 487 kts 46°
2026-05-07 02:37 40.60574 -100.67329 37122 ft 488 kts 46°
2026-05-07 02:38 40.64804 -100.60332 37146 ft 488 kts 46°
2026-05-07 02:38 40.68338 -100.54452 37135 ft 489 kts 46°
2026-05-07 02:39 40.72526 -100.47465 37118 ft 489 kts 46°
2026-05-07 02:39 40.76738 -100.40428 37114 ft 489 kts 47°
2026-05-07 02:40 40.80944 -100.33386 37105 ft 489 kts 47°
2026-05-07 02:40 40.85148 -100.26334 37104 ft 488 kts 47°
2026-05-07 02:41 40.89347 -100.19273 37124 ft 489 kts 47°
2026-05-07 02:41 40.93545 -100.12197 37104 ft 490 kts 47°
2026-05-07 02:42 40.97746 -100.05101 37095 ft 491 kts 47°
2026-05-07 02:42 41.01996 -99.97912 37101 ft 500 kts 47°
2026-05-07 02:43 41.06317 -99.90584 37094 ft 508 kts 47°
2026-05-07 02:43 41.10659 -99.83192 37106 ft 509 kts 47°
2026-05-07 02:44 41.15005 -99.75774 37101 ft 510 kts 47°
2026-05-07 02:44 41.19356 -99.68333 37066 ft 509 kts 47°
2026-05-07 02:45 41.23685 -99.60910 37053 ft 507 kts 47°
2026-05-07 02:45 41.27992 -99.53510 37043 ft 505 kts 47°
2026-05-07 02:46 41.32275 -99.46134 37080 ft 503 kts 47°
2026-05-07 02:46 41.36553 -99.38753 37053 ft 504 kts 47°
2026-05-07 02:47 41.40837 -99.31341 37076 ft 506 kts 47°
2026-05-07 02:47 41.45132 -99.23890 37060 ft 507 kts 47°
2026-05-07 02:48 41.49435 -99.16407 37047 ft 508 kts 47°
2026-05-07 02:48 41.53699 -99.08973 37066 ft 509 kts 47°
2026-05-07 02:49 41.58009 -99.01441 37040 ft 510 kts 47°
2026-05-07 02:49 41.62322 -98.93885 37034 ft 511 kts 47°
2026-05-07 02:50 41.66626 -98.86324 37045 ft 511 kts 47°
2026-05-07 02:50 41.70929 -98.78748 37047 ft 511 kts 47°
2026-05-07 02:51 41.75220 -98.71173 37071 ft 510 kts 47°
2026-05-07 02:51 41.79505 -98.63592 37061 ft 511 kts 48°
2026-05-07 02:52 41.83787 -98.55995 37062 ft 511 kts 48°
2026-05-07 02:52 41.88070 -98.48379 37072 ft 511 kts 48°
2026-05-07 02:53 41.92014 -98.40377 37064 ft 518 kts 57°
2026-05-07 02:53 41.95351 -98.31790 37082 ft 519 kts 58°
2026-05-07 02:54 41.98652 -98.23147 37072 ft 520 kts 58°
2026-05-07 02:54 42.01986 -98.14511 37072 ft 521 kts 58°
2026-05-07 02:55 42.05343 -98.05875 37073 ft 521 kts 58°
2026-05-07 02:55 42.08680 -97.97274 37079 ft 522 kts 58°
2026-05-07 02:56 42.12038 -97.88590 37079 ft 523 kts 58°
2026-05-07 02:56 42.15392 -97.79883 37094 ft 525 kts 58°
2026-05-07 02:57 42.18749 -97.71136 37090 ft 525 kts 58°
2026-05-07 02:57 42.22098 -97.62387 37083 ft 525 kts 58°
2026-05-07 02:58 42.25438 -97.53634 37095 ft 525 kts 58°
2026-05-07 02:58 42.28776 -97.44861 37091 ft 526 kts 58°
2026-05-07 02:59 42.32113 -97.36063 37077 ft 526 kts 58°
2026-05-07 02:59 42.35444 -97.27254 37075 ft 526 kts 59°
2026-05-07 03:00 42.38767 -97.18443 37071 ft 526 kts 59°
2026-05-07 03:00 42.42084 -97.09611 37073 ft 526 kts 59°
2026-05-07 03:01 42.45394 -97.00775 37074 ft 526 kts 59°
2026-05-07 03:01 42.48694 -96.91938 37058 ft 525 kts 59°
2026-05-07 03:02 42.51939 -96.83056 37070 ft 530 kts 64°
2026-05-07 03:02 42.53965 -96.73395 37066 ft 544 kts 78°
2026-05-07 03:03 42.54380 -96.63061 37068 ft 553 kts 88°
2026-05-07 03:03 42.54267 -96.52607 37053 ft 556 kts 89°
2026-05-07 03:04 42.54160 -96.42096 37053 ft 558 kts 89°
2026-05-07 03:04 42.54128 -96.31582 37050 ft 558 kts 89°
2026-05-07 03:05 42.54125 -96.21074 37044 ft 557 kts 88°
2026-05-07 03:05 42.54115 -96.10591 37040 ft 555 kts 89°
2026-05-07 03:06 42.54088 -96.00137 37044 ft 554 kts 89°
2026-05-07 03:06 42.54047 -95.89697 37047 ft 554 kts 89°
2026-05-07 03:07 42.53996 -95.79254 37052 ft 553 kts 89°
2026-05-07 03:07 42.53937 -95.68824 37064 ft 554 kts 90°
2026-05-07 03:08 42.53869 -95.58370 37048 ft 555 kts 90°
2026-05-07 03:08 42.53790 -95.47898 37053 ft 556 kts 90°
2026-05-07 03:09 42.53702 -95.37402 37050 ft 557 kts 90°
2026-05-07 03:09 42.53605 -95.26897 37048 ft 558 kts 90°
2026-05-07 03:10 42.53497 -95.16375 37048 ft 559 kts 90°
2026-05-07 03:10 42.53380 -95.05836 37051 ft 559 kts 90°
2026-05-07 03:11 42.53254 -94.95356 37063 ft 559 kts 91°
2026-05-07 03:11 42.53117 -94.84794 37071 ft 560 kts 91°
2026-05-07 03:12 42.52970 -94.74224 37082 ft 561 kts 91°
2026-05-07 03:12 42.52814 -94.63646 37084 ft 561 kts 91°
2026-05-07 03:13 42.52648 -94.53068 37079 ft 562 kts 91°
2026-05-07 03:13 42.52471 -94.42472 37064 ft 562 kts 92°
2026-05-07 03:14 42.52286 -94.31920 37059 ft 564 kts 92°
2026-05-07 03:15 42.51987 -94.15953 37055 ft 566 kts 92°
2026-05-07 03:15 42.51775 -94.05278 37059 ft 567 kts 92°
2026-05-07 03:16 42.51553 -93.94578 37051 ft 568 kts 92°
2026-05-07 03:16 42.51320 -93.83866 37045 ft 569 kts 92°
2026-05-07 03:17 42.51077 -93.73154 37064 ft 569 kts 92°
2026-05-07 03:17 42.50824 -93.62440 37068 ft 570 kts 92°
2026-05-07 03:18 42.50561 -93.51691 37070 ft 570 kts 93°
2026-05-07 03:18 42.50334 -93.42774 37073 ft 569 kts 93°
2026-05-07 03:19 42.50053 -93.32050 37076 ft 569 kts 93°
2026-05-07 03:19 42.49711 -93.19523 37075 ft 569 kts 93°
2026-05-07 03:20 42.49460 -93.10620 37070 ft 569 kts 93°
2026-05-07 03:20 42.49095 -92.98097 37066 ft 569 kts 93°
2026-05-07 03:21 42.48772 -92.87377 37069 ft 570 kts 93°
2026-05-07 03:21 42.48438 -92.76652 37065 ft 570 kts 93°
2026-05-07 03:22 42.48154 -92.67738 37065 ft 570 kts 94°
2026-05-07 03:22 42.47741 -92.55174 37066 ft 571 kts 94°
2026-05-07 03:23 42.47439 -92.46239 37063 ft 572 kts 94°
2026-05-07 03:23 42.47066 -92.35481 37068 ft 572 kts 94°
2026-05-07 03:24 42.46683 -92.24720 37056 ft 573 kts 94°
2026-05-07 03:24 42.46289 -92.13938 37092 ft 573 kts 94°
2026-05-07 03:25 42.45884 -92.03143 37093 ft 574 kts 94°
2026-05-07 03:25 42.45469 -91.92346 37093 ft 574 kts 94°
2026-05-07 03:26 42.45046 -91.81618 37081 ft 575 kts 95°
2026-05-07 03:26 42.44610 -91.70795 37076 ft 575 kts 95°
2026-05-07 03:27 42.44164 -91.59979 37079 ft 575 kts 95°
2026-05-07 03:27 42.43708 -91.49173 37072 ft 575 kts 95°
2026-05-07 03:28 42.43241 -91.38362 37073 ft 575 kts 95°
2026-05-07 03:28 42.42764 -91.27543 37073 ft 576 kts 95°
2026-05-07 03:29 42.42276 -91.16719 37074 ft 576 kts 95°
2026-05-07 03:29 42.41779 -91.05888 37069 ft 577 kts 95°
2026-05-07 03:30 42.41269 -90.95038 37079 ft 578 kts 95°
2026-05-07 03:30 42.40749 -90.84166 37084 ft 579 kts 96°
2026-05-07 03:31 42.40227 -90.73289 37052 ft 580 kts 95°
2026-05-07 03:31 42.40363 -90.62429 37088 ft 583 kts 87°
2026-05-07 03:32 42.40948 -90.51460 37085 ft 585 kts 86°
2026-05-07 03:32 42.41526 -90.40477 37084 ft 585 kts 87°
2026-05-07 03:33 42.42041 -90.29488 37077 ft 584 kts 88°
2026-05-07 03:33 42.42520 -90.18511 37085 ft 584 kts 88°
2026-05-07 03:34 42.42988 -90.07531 37084 ft 585 kts 88°
2026-05-07 03:34 42.43451 -89.96553 37084 ft 585 kts 88°
2026-05-07 03:35 42.43908 -89.85539 37079 ft 585 kts 88°
2026-05-07 03:35 42.44354 -89.74531 37074 ft 586 kts 88°
2026-05-07 03:36 42.44786 -89.63588 37070 ft 586 kts 88°
2026-05-07 03:36 42.45211 -89.52566 37069 ft 586 kts 88°
2026-05-07 03:37 42.45625 -89.41542 37076 ft 586 kts 88°
2026-05-07 03:37 42.46029 -89.30508 37078 ft 586 kts 88°
2026-05-07 03:38 42.46422 -89.19487 37075 ft 586 kts 88°
2026-05-07 03:38 42.46805 -89.08443 37089 ft 587 kts 88°
2026-05-07 03:39 42.47177 -88.97405 37080 ft 587 kts 89°
2026-05-07 03:39 42.47539 -88.86347 37076 ft 588 kts 89°
2026-05-07 03:40 42.47888 -88.75356 37072 ft 588 kts 89°
2026-05-07 03:40 42.48230 -88.64279 37074 ft 589 kts 89°
2026-05-07 03:41 42.48561 -88.53182 37070 ft 590 kts 89°
2026-05-07 03:41 42.48882 -88.42082 37062 ft 590 kts 89°
2026-05-07 03:42 42.49192 -88.30961 37066 ft 591 kts 89°
2026-05-07 03:42 42.49492 -88.19844 37063 ft 591 kts 89°
2026-05-07 03:43 42.49781 -88.08709 37056 ft 591 kts 89°
2026-05-07 03:43 42.50052 -87.97577 37062 ft 591 kts 90°
2026-05-07 03:44 42.50096 -87.86437 37056 ft 591 kts 92°
2026-05-07 03:44 42.50014 -87.75301 37057 ft 591 kts 92°
2026-05-07 03:45 42.49944 -87.64153 37044 ft 591 kts 92°
2026-05-07 03:45 42.49900 -87.53010 37053 ft 592 kts 92°
2026-05-07 03:46 42.49858 -87.41854 37045 ft 593 kts 92°
2026-05-07 03:46 42.49803 -87.30665 37042 ft 593 kts 92°
2026-05-07 03:47 42.49733 -87.19486 37046 ft 594 kts 92°
2026-05-07 03:47 42.49651 -87.08293 37053 ft 594 kts 92°
2026-05-07 03:48 42.49558 -86.97161 37053 ft 595 kts 93°
2026-05-07 03:48 42.49454 -86.85944 37036 ft 596 kts 93°
2026-05-07 03:49 42.49339 -86.74714 37037 ft 597 kts 93°
2026-05-07 03:49 42.49213 -86.63465 37031 ft 597 kts 93°
2026-05-07 03:50 42.49076 -86.52200 37008 ft 598 kts 93°
2026-05-07 03:50 42.48928 -86.40925 37024 ft 599 kts 93°
2026-05-07 03:51 42.48768 -86.29619 37017 ft 600 kts 94°
2026-05-07 03:51 42.48597 -86.18307 37017 ft 601 kts 94°
2026-05-07 03:52 42.48415 -86.06984 37019 ft 602 kts 94°
2026-05-07 03:52 42.48221 -85.95641 37018 ft 602 kts 94°
2026-05-07 03:53 42.48016 -85.84297 37018 ft 602 kts 94°
2026-05-07 03:53 42.47800 -85.72953 37028 ft 602 kts 94°
2026-05-07 03:54 42.47572 -85.61610 37018 ft 602 kts 94°
2026-05-07 03:54 42.47334 -85.50279 37023 ft 602 kts 94°
2026-05-07 03:55 42.47084 -85.38953 37004 ft 602 kts 94°
2026-05-07 03:55 42.46826 -85.27729 37007 ft 601 kts 94°
2026-05-07 03:56 42.46554 -85.16405 37014 ft 601 kts 94°
2026-05-07 03:56 42.46271 -85.05089 37009 ft 601 kts 95°
2026-05-07 03:57 42.45977 -84.93776 36990 ft 602 kts 95°
2026-05-07 03:57 42.45667 -84.82445 36994 ft 602 kts 95°
2026-05-07 03:58 42.45119 -84.71144 37004 ft 601 kts 98°
2026-05-07 03:58 42.44415 -84.59853 36986 ft 602 kts 98°
2026-05-07 03:59 42.43723 -84.48536 36998 ft 603 kts 98°
2026-05-07 03:59 42.43066 -84.37219 37016 ft 604 kts 98°
2026-05-07 04:00 42.42415 -84.25894 36994 ft 604 kts 98°
2026-05-07 04:00 42.41748 -84.14552 37004 ft 605 kts 98°
2026-05-07 04:01 42.41065 -84.03209 37008 ft 605 kts 98°
2026-05-07 04:01 42.40368 -83.91870 37005 ft 605 kts 98°
2026-05-07 04:02 42.39658 -83.80493 36997 ft 606 kts 98°
2026-05-07 04:02 42.38939 -83.69144 37005 ft 606 kts 98°
2026-05-07 04:03 42.38208 -83.57781 37002 ft 606 kts 98°
2026-05-07 04:03 42.37467 -83.46430 37003 ft 606 kts 98°
2026-05-07 04:04 42.36718 -83.35138 37008 ft 606 kts 98°
2026-05-07 04:04 42.35952 -83.23782 37014 ft 606 kts 99°
2026-05-07 04:05 42.35177 -83.12441 36985 ft 606 kts 99°
2026-05-07 04:05 42.34391 -83.01093 36999 ft 606 kts 99°
2026-05-07 04:06 42.33593 -82.89757 37010 ft 605 kts 99°
2026-05-07 04:06 42.32784 -82.78424 37007 ft 605 kts 99°
2026-05-07 04:07 42.31966 -82.67119 37006 ft 604 kts 99°
2026-05-07 04:07 42.31137 -82.55814 37002 ft 605 kts 99°
2026-05-07 04:08 42.30296 -82.44511 37003 ft 605 kts 99°
2026-05-07 04:08 42.29443 -82.33198 36990 ft 606 kts 99°
2026-05-07 04:09 42.28579 -82.21881 37003 ft 607 kts 99°
2026-05-07 04:09 42.27708 -82.10618 37003 ft 608 kts 99°
2026-05-07 04:10 42.26818 -81.99261 37000 ft 608 kts 99°
2026-05-07 04:10 42.26063 -81.89744 37002 ft 609 kts 99°
2026-05-07 04:11 42.25004 -81.76547 37006 ft 609 kts 99°
2026-05-07 04:11 42.24236 -81.67103 37008 ft 608 kts 100°
2026-05-07 04:12 42.23303 -81.55756 37010 ft 608 kts 100°
2026-05-07 04:12 42.22357 -81.44399 37019 ft 609 kts 100°
2026-05-07 04:13 42.21398 -81.33032 37017 ft 610 kts 100°
2026-05-07 04:13 42.20428 -81.21654 37008 ft 611 kts 100°
2026-05-07 04:14 42.19444 -81.10258 37021 ft 613 kts 101°
2026-05-07 04:14 42.18447 -80.98833 37022 ft 614 kts 101°
2026-05-07 04:15 42.17438 -80.87406 37001 ft 615 kts 101°
2026-05-07 04:15 42.16420 -80.76015 37017 ft 616 kts 101°
2026-05-07 04:16 42.15383 -80.64549 37021 ft 617 kts 101°
2026-05-07 04:16 42.14335 -80.53073 36989 ft 617 kts 101°
2026-05-07 04:17 42.13273 -80.41583 37018 ft 618 kts 101°
2026-05-07 04:17 42.12197 -80.30073 37007 ft 620 kts 101°
2026-05-07 04:18 42.11108 -80.18544 37010 ft 621 kts 102°
2026-05-07 04:18 42.10006 -80.07016 37012 ft 622 kts 102°
2026-05-07 04:19 42.08889 -79.95446 37015 ft 623 kts 102°
2026-05-07 04:19 42.07759 -79.83867 37018 ft 624 kts 102°
2026-05-07 04:20 42.06626 -79.72368 37007 ft 623 kts 102°
2026-05-07 04:20 42.05477 -79.60837 37011 ft 624 kts 102°
2026-05-07 04:21 42.03724 -79.43478 37004 ft 624 kts 102°
2026-05-07 04:21 42.02541 -79.31913 36991 ft 624 kts 102°
2026-05-07 04:22 42.01344 -79.20337 36999 ft 625 kts 103°
2026-05-07 04:22 42.00136 -79.08760 37007 ft 626 kts 103°
2026-05-07 04:23 41.98916 -78.97177 37002 ft 626 kts 103°
2026-05-07 04:23 41.97682 -78.85587 37012 ft 627 kts 103°
2026-05-07 04:24 41.96433 -78.73973 36979 ft 628 kts 103°
2026-05-07 04:24 41.95174 -78.62363 36967 ft 628 kts 103°
2026-05-07 04:25 41.93900 -78.50745 36981 ft 629 kts 103°
2026-05-07 04:25 41.92622 -78.39203 36997 ft 630 kts 104°
2026-05-07 04:26 41.91327 -78.27561 36990 ft 630 kts 104°
2026-05-07 04:26 41.90012 -78.15938 36983 ft 630 kts 104°
2026-05-07 04:27 41.88690 -78.04323 36977 ft 630 kts 104°
2026-05-07 04:27 41.87356 -77.92697 36944 ft 630 kts 104°
2026-05-07 04:28 41.85572 -77.81273 36981 ft 621 kts 114°
2026-05-07 04:28 41.82689 -77.70458 36986 ft 616 kts 119°
2026-05-07 04:29 41.79753 -77.59657 36974 ft 618 kts 117°
2026-05-07 04:29 41.76897 -77.48790 36977 ft 618 kts 117°
2026-05-07 04:30 41.74004 -77.37951 36974 ft 618 kts 118°
2026-05-07 04:30 41.71102 -77.27182 36981 ft 619 kts 118°
2026-05-07 04:31 41.68183 -77.16346 36886 ft 619 kts 118°
2026-05-07 04:31 41.65250 -77.05511 36968 ft 621 kts 118°
2026-05-07 04:32 41.62296 -76.94643 36970 ft 623 kts 118°
2026-05-07 04:32 41.59324 -76.83741 36921 ft 625 kts 118°
2026-05-07 04:33 41.56344 -76.72846 36946 ft 625 kts 118°
2026-05-07 04:33 41.53340 -76.61922 36959 ft 626 kts 118°
2026-05-07 04:34 41.50333 -76.51020 36941 ft 626 kts 118°
2026-05-07 04:34 41.47325 -76.40149 36946 ft 624 kts 118°
2026-05-07 04:35 41.44330 -76.29368 36944 ft 624 kts 118°
2026-05-07 04:35 41.41310 -76.18533 36945 ft 624 kts 118°
2026-05-07 04:36 41.38279 -76.07714 36931 ft 623 kts 118°
2026-05-07 04:36 41.35231 -75.96886 36930 ft 623 kts 118°
2026-05-07 04:37 41.32183 -75.86094 36876 ft 623 kts 118°
2026-05-07 04:37 41.29124 -75.75306 36930 ft 622 kts 118°
2026-05-07 04:38 41.25954 -75.64620 36885 ft 616 kts 122°
2026-05-07 04:38 41.24240 -75.59451 36487 ft 607 kts 123°
2026-05-07 04:38 41.22506 -75.54370 35914 ft 601 kts 123°
2026-05-07 04:39 41.20776 -75.49338 35393 ft 596 kts 123°
2026-05-07 04:39 41.19087 -75.44378 34762 ft 579 kts 123°
2026-05-07 04:39 41.17461 -75.39551 33734 ft 567 kts 123°
2026-05-07 04:39 41.15864 -75.34809 32519 ft 558 kts 123°
2026-05-07 04:40 41.14286 -75.30136 31323 ft 550 kts 124°
2026-05-07 04:40 41.12742 -75.25557 30308 ft 538 kts 124°
2026-05-07 04:40 41.11233 -75.21081 29428 ft 522 kts 124°
2026-05-07 04:40 41.09770 -75.16755 28580 ft 507 kts 124°
2026-05-07 04:41 41.08353 -75.12571 27975 ft 487 kts 125°
2026-05-07 04:41 41.07000 -75.08571 27560 ft 465 kts 126°
2026-05-07 04:41 41.05706 -75.04756 27169 ft 444 kts 126°
2026-05-07 04:41 41.04462 -75.01108 26831 ft 426 kts 126°
2026-05-07 04:42 41.03228 -74.97533 26535 ft 431 kts 126°
2026-05-07 04:42 41.01972 -74.93919 26234 ft 444 kts 126°
2026-05-07 04:42 41.00687 -74.90121 25868 ft 461 kts 122°
2026-05-07 04:42 40.99603 -74.86062 25445 ft 472 kts 115°
2026-05-07 04:43 40.98822 -74.81745 24587 ft 479 kts 105°
2026-05-07 04:43 40.98366 -74.77441 23684 ft 476 kts 103°
2026-05-07 04:43 40.97920 -74.73138 22810 ft 466 kts 104°
2026-05-07 04:43 40.97473 -74.68967 22154 ft 449 kts 104°
2026-05-07 04:44 40.97034 -74.64989 21797 ft 426 kts 105°
2026-05-07 04:44 40.96603 -74.61214 21422 ft 405 kts 105°
2026-05-07 04:44 40.96183 -74.57614 21095 ft 387 kts 106°
2026-05-07 04:44 40.95753 -74.54051 20823 ft 400 kts 106°
2026-05-07 04:45 40.95290 -74.50332 20509 ft 417 kts 105°
2026-05-07 04:45 40.94821 -74.46498 20136 ft 425 kts 105°
2026-05-07 04:45 40.94357 -74.42631 19758 ft 425 kts 104°
2026-05-07 04:45 40.93907 -74.38831 19386 ft 423 kts 104°
2026-05-07 04:46 40.93451 -74.34999 19004 ft 420 kts 104°
2026-05-07 04:46 40.92998 -74.31211 18650 ft 416 kts 104°
2026-05-07 04:46 40.92544 -74.27441 18294 ft 413 kts 104°
2026-05-07 04:46 40.92091 -74.23705 17892 ft 410 kts 104°
2026-05-07 04:47 40.91641 -74.20004 17495 ft 407 kts 104°
2026-05-07 04:47 40.91187 -74.16275 17112 ft 403 kts 104°
2026-05-07 04:47 40.90749 -74.12683 16778 ft 399 kts 104°
2026-05-07 04:47 40.90291 -74.09090 16483 ft 392 kts 105°
2026-05-07 04:48 40.89809 -74.05559 16124 ft 389 kts 106°
2026-05-07 04:48 40.89322 -74.02074 15774 ft 386 kts 106°
2026-05-07 04:48 40.88832 -73.98592 15402 ft 383 kts 106°
2026-05-07 04:48 40.88350 -73.95146 15073 ft 380 kts 106°
2026-05-07 04:49 40.87871 -73.91730 14729 ft 377 kts 106°
2026-05-07 04:49 40.87402 -73.88354 14365 ft 367 kts 106°
2026-05-07 04:49 40.86941 -73.85042 14042 ft 365 kts 107°
2026-05-07 04:49 40.86479 -73.81738 13700 ft 364 kts 107°
2026-05-07 04:50 40.86019 -73.78458 13314 ft 362 kts 107°
2026-05-07 04:50 40.85561 -73.75197 12931 ft 357 kts 107°
2026-05-07 04:50 40.85110 -73.71985 12604 ft 354 kts 107°
2026-05-07 04:50 40.84660 -73.68792 12263 ft 353 kts 107°
2026-05-07 04:51 40.84211 -73.65610 11923 ft 351 kts 107°
2026-05-07 04:51 40.83763 -73.62449 11573 ft 350 kts 107°
2026-05-07 04:51 40.83312 -73.59273 11104 ft 354 kts 106°
2026-05-07 04:51 40.82853 -73.56056 10640 ft 358 kts 106°
2026-05-07 04:52 40.82396 -73.52833 10271 ft 358 kts 106°
2026-05-07 04:52 40.81941 -73.49625 10083 ft 351 kts 106°
2026-05-07 04:52 40.81495 -73.46483 9861 ft 346 kts 106°
2026-05-07 04:52 40.81057 -73.43419 9560 ft 334 kts 106°
2026-05-07 04:53 40.80639 -73.40492 9185 ft 323 kts 106°
2026-05-07 04:53 40.80163 -73.37646 8884 ft 310 kts 117°
2026-05-07 04:53 40.79061 -73.35357 8615 ft 285 kts 147°
2026-05-07 04:53 40.77473 -73.34010 8343 ft 263 kts 170°
2026-05-07 04:54 40.75731 -73.33460 8011 ft 255 kts 182°
2026-05-07 04:54 40.73975 -73.33348 7708 ft 249 kts 194°
2026-05-07 04:54 40.72356 -73.33966 7419 ft 239 kts 210°
2026-05-07 04:54 40.70831 -73.34832 7116 ft 239 kts 209°
2026-05-07 04:55 40.69302 -73.35670 6829 ft 238 kts 209°
2026-05-07 04:55 40.67771 -73.36501 6542 ft 237 kts 208°
2026-05-07 04:55 40.66247 -73.37322 6262 ft 236 kts 209°
2026-05-07 04:55 40.64725 -73.38142 5939 ft 236 kts 208°
2026-05-07 04:56 40.63211 -73.38955 5646 ft 233 kts 208°
2026-05-07 04:56 40.61883 -73.40053 5351 ft 223 kts 228°
2026-05-07 04:56 40.60928 -73.41657 5090 ft 223 kts 235°
2026-05-07 04:56 40.60012 -73.43326 4803 ft 227 kts 235°
2026-05-07 04:57 40.59079 -73.45013 4520 ft 229 kts 235°
2026-05-07 04:57 40.58457 -73.46138 4324 ft 231 kts 235°
2026-05-07 04:57 40.57507 -73.47854 4010 ft 234 kts 234°
2026-05-07 04:57 40.56545 -73.49591 3801 ft 234 kts 235°
2026-05-07 04:58 40.55605 -73.51290 3675 ft 226 kts 236°
2026-05-07 04:58 40.54998 -73.53094 3551 ft 211 kts 263°
2026-05-07 04:58 40.55065 -73.54944 3512 ft 198 kts 278°
2026-05-07 04:58 40.55524 -73.56594 3363 ft 189 kts 295°
2026-05-07 04:59 40.56180 -73.58031 3123 ft 177 kts 297°
2026-05-07 04:59 40.56800 -73.59350 2885 ft 166 kts 297°
2026-05-07 04:59 40.57407 -73.60661 2683 ft 169 kts 297°
2026-05-07 04:59 40.58007 -73.61958 2578 ft 162 kts 298°
2026-05-07 05:00 40.58628 -73.63216 2529 ft 166 kts 299°
2026-05-07 05:00 40.59226 -73.64426 2318 ft 153 kts 299°
2026-05-07 05:00 40.59799 -73.65610 1845 ft 154 kts 300°
2026-05-07 05:00 40.60295 -73.66836 1408 ft 144 kts 296°
2026-05-07 05:01 40.60714 -73.67947 1149 ft 129 kts 300°
2026-05-07 05:01 40.61154 -73.68961 1036 ft 127 kts 303°
2026-05-07 05:01 40.61609 -73.69944 893 ft 123 kts 304°
2026-05-07 05:01 40.62062 -73.70906 867 ft 125 kts 304°
2026-05-07 05:02 40.62530 -73.71878 837 ft 124 kts 305°
2026-05-07 05:02 40.62999 -73.72874 796 ft 127 kts 303°
2026-05-07 05:02 40.63476 -73.73929 630 ft 139 kts 301°
2026-05-07 05:02 40.63972 -73.75044 403 ft 141 kts 300°
2026-05-07 05:03 40.64448 -73.76097 110 ft 123 kts 302°
2026-05-07 05:03 40.64841 -73.76957 27 ft 97 kts 300°
2026-05-07 05:03 40.65125 -73.77588 27 ft 68 kts 301°
2026-05-07 05:03 40.65334 -73.78042 31 ft 44 kts 300°
2026-05-07 05:04 40.65418 -73.78286 26 ft 19 kts 266°
2026-05-07 05:04 40.65375 -73.78392 31 ft 0 kts 216°
2026-05-07 05:04 40.65368 -73.78399 31 ft 2 kts 214°
2026-05-07 05:04 40.65362 -73.78404 30 ft 1 kts 214°
2026-05-07 05:05 40.65348 -73.78416 28 ft 3 kts 212°
2026-05-07 05:05 40.65321 -73.78432 29 ft 5 kts 198°
2026-05-07 05:05 40.65285 -73.78429 29 ft 6 kts 158°
2026-05-07 05:05 40.65248 -73.78413 30 ft 6 kts 171°
2026-05-07 05:06 40.65226 -73.78413 28 ft 0 kts 186°
2026-05-07 05:06 40.65225 -73.78413 28 ft 1 kts 186°
2026-05-07 05:06 40.65190 -73.78407 27 ft 5 kts 156°
2026-05-07 05:06 40.65157 -73.78383 29 ft 6 kts 152°
2026-05-07 05:07 40.65141 -73.78373 27 ft 2 kts 153°
2026-05-07 05:07 40.65132 -73.78367 30 ft 0 kts 154°
2026-05-07 05:07 40.65130 -73.78366 30 ft 1 kts 155°
2026-05-07 05:07 40.65128 -73.78365 30 ft 0 kts 156°
2026-05-07 05:23 40.67805 -73.36482 6544 ft 237 kts 208°
2026-05-07 05:23 40.61284 -73.69233 1009 ft 130 kts 303°
2026-05-07 05:23 40.64132 -73.75394 313 ft 136 kts 301°
2026-05-07 05:24 40.64571 -73.76371 44 ft 115 kts 302°
2026-05-07 05:24 40.64942 -73.77180 27 ft 86 kts 300°
2026-05-07 05:24 40.62415 -73.71639 430 ft 163 kts 301°
2026-05-07 05:24 40.62460 -73.71738 382 ft 165 kts 300°
2026-05-07 05:25 40.62655 -73.72226 709 ft 484 kts 296°
2026-05-07 05:26 40.57407 -73.48035 3987 ft 234 kts 234°
2026-05-07 05:26 40.54996 -73.54306 3527 ft 200 kts 274°
2026-05-07 05:26 40.59534 -73.65052 2092 ft 154 kts 299°
2026-05-07 05:26 40.63312 -73.73557 682 ft 137 kts 301°
2026-05-07 05:27 40.63759 -73.74561 511 ft 141 kts 300°
2026-05-07 05:27 40.64234 -73.75620 247 ft 132 kts 301°
2026-05-07 05:27 40.64733 -73.76729 27 ft 104 kts 303°
2026-05-07 05:27 40.65105 -73.77545 27 ft 69 kts 301°